Wetbulb
46.18 44.62 44.77 45.92 46.27 46.47 46.59 47.26 47.58 48.26 48.67 49.38 50.47 50.68 50.10 49.20 49.49 50.39 49.75 49.46 49.16 49.12 49.67 49.19 49.02 48.32 47.72 47.22 46.22 45.61 45.37 45.96 45.31 47.35 48.05 48.75 47.65 46.52 46.77 46.82 47.39 47.65 47.99
45.81 45.13 45.44 45.88 47.02 46.56 46.63 46.40 47.58 48.08 49.42 49.85 48.98 48.50 47.51 46.52 46.17 46.86 46.29 46.20 46.41 47.39 48.08 48.56 48.25 48.70 47.65 47.12 46.54 46.26 45.37 45.73 46.55 45.52 47.87 47.98 46.99 47.47 46.95 45.98 46.38 47.61 47.16
46.06 46.03 46.42 47.22 47.18 47.09 47.15 47.49 48.15 48.82 48.81 47.87 48.13 47.15 45.98 46.45 46.12 46.27 45.94 45.58 45.42 45.97 47.61 47.69 48.05 47.79 47.05 46.65 46.17 46.01 45.32 45.92 47.22 47.51 46.73 48.43 47.26 47.02 44.98 45.83 45.88 46.31 47.84
47.37 46.74 46.58 46.95 47.02 46.97 46.97 47.60 47.69 47.67 47.16 46.97 46.84 46.45 45.50 44.96 45.18 45.73 45.59 44.96 44.88 45.81 48.24 48.43 48.06 47.94 47.24 46.93 46.98 47.01 47.68 47.00 47.83 47.42 46.95 47.08 47.31 46.10 44.92 43.61 44.10 46.21 46.31
47.07 46.88 45.89 45.58 45.61 46.51 46.04 46.24 46.81 46.54 46.11 45.89 45.09 45.36 45.34 45.31 45.61 46.34 45.63 44.41 43.40 46.06 46.82 48.16 49.34 50.44 50.43 50.18 49.46 48.85 48.66 47.60 47.62 47.17 47.20 46.03 46.14 43.90 43.55 45.54 44.60 45.58 46.52
46.56 45.61 45.61 45.65 46.10 45.49 45.60 45.37 45.59 45.73 45.85 45.94 45.92 46.12 45.78 45.24 46.34 46.59 45.96 44.41 45.21 44.75 44.96 45.98 46.87 48.20 49.19 50.36 50.61 51.08 50.08 47.71 47.78 46.77 46.26 44.39 44.39 43.68 44.23 45.45 44.63 44.28 42.68
46.01 45.13 45.66 45.99 45.50 45.48 45.60 45.54 44.60 44.47 45.01 45.22 46.10 45.05 43.79 45.15 45.28 46.18 46.77 45.69 45.44 45.36 45.60 45.37 47.18 48.31 48.80 48.80 49.57 49.32 48.98 49.01 49.53 48.48 45.64 45.31 45.53 45.23 45.70 45.55 45.09 44.37 44.16
45.44 44.92 45.54 45.33 45.23 45.32 45.58 45.52 45.17 45.24 45.24 45.98 46.04 45.02 44.76 45.89 44.92 44.41 45.60 46.51 46.88 46.90 47.02 46.77 46.58 47.40 48.27 48.66 47.81 47.24 47.44 48.41 48.21 48.61 47.09 47.25 46.58 46.42 45.75 45.52 44.71 44.24 45.92
45.38 45.00 45.18 45.23 44.86 44.80 44.64 44.78 45.77 46.19 46.03 46.01 46.45 46.34 46.16 45.98 44.51 44.62 46.15 47.06 46.47 45.95 46.25 46.30 46.73 47.09 45.27 46.29 49.09 48.22 46.83 46.84 48.22 47.59 47.13 45.98 45.04 45.30 45.29 46.99 45.91 44.37 44.59
45.81 46.19 45.94 45.76 45.09 44.35 44.46 44.53 45.61 46.09 46.24 46.57 46.45 46.88 46.99 46.14 44.17 43.86 46.26 47.04 46.21 45.87 45.84 45.13 45.09 44.04 42.56 43.80 48.82 47.54 46.56 46.88 46.22 46.25 46.96 46.73 46.10 47.67 47.11 48.74 47.27 44.24 45.26
46.86 46.52 45.82 45.57 45.16 44.89 45.09 45.18 44.89 45.15 45.91 46.21 46.32 46.95 46.64 46.23 46.70 43.16 43.73 47.69 46.18 45.69 45.41 45.28 45.34 42.58 41.47 41.71 43.47 47.13 45.90 46.56 44.57 44.64 44.78 45.23 45.86 46.46 47.15 48.18 48.69 46.38 45.33
47.12 46.54 45.99 45.66 45.39 45.50 44.98 45.25 45.17 44.96 45.14 45.79 46.30 45.19 45.82 45.80 44.57 43.59 42.63 43.81 46.24 45.75 44.32 45.27 45.99 41.27 41.36 41.31 43.03 40.33 40.75 43.08 45.75 45.80 45.47 44.27 43.80 45.45 47.44 47.49 47.45 47.35 47.68
46.52 46.49 46.65 46.65 45.81 45.67 45.45 45.47 44.60 44.99 45.23 44.94 44.70 45.03 46.10 46.70 46.33 43.93 42.93 43.05 44.51 47.56 47.57 45.04 41.93 41.21 41.22 42.95 41.55 41.13 41.21 45.88 45.67 46.63 45.11 44.39 46.75 47.92 48.43 49.16 49.63 48.71 48.78
46.40 46.41 46.93 46.11 45.84 45.91 46.20 45.79 45.16 44.58 45.10 44.39 45.02 44.85 45.41 46.42 46.65 46.51 46.33 47.14 45.56 47.31 46.43 46.24 44.59 44.01 43.38 45.15 46.92 47.76 48.25 47.66 46.68 46.76 47.25 47.22 46.68 48.65 48.17 48.45 48.69 48.40 47.97
45.23 45.38 45.61 45.15 46.09 46.18 46.13 45.48 45.67 45.27 44.16 45.16 45.01 43.99 44.85 45.71 45.92 41.38 40.44 43.80 45.16 43.99 45.45 47.21 46.49 47.51 47.14 47.18 48.22 47.91 47.93 48.85 48.96 48.87 47.03 48.38 49.80 47.87 50.58 49.54 49.36 49.28 48.53
44.77 45.34 46.13 46.76 46.59 46.40 46.36 47.13 43.42 42.60 41.93 39.07 38.82 39.59 43.71 41.82 39.34 39.60 38.55 38.36 38.86 40.25 44.99 43.25 43.10 42.95 42.77 43.15 43.74 44.58 45.35 44.90 45.42 46.53 47.77 48.82 49.57 50.49 49.10 48.46 48.28 47.66 47.18
45.93 46.99 47.67 47.35 48.83 47.22 47.84 47.52 47.22 48.23 43.20 41.08 39.56 38.30 37.78 37.70 37.93 38.31 38.51 37.98 37.45 40.27 41.33 41.38 40.88 40.57 40.56 41.15 41.82 42.72 43.16 43.74 44.94 45.59 45.83 47.08 49.53 49.47 47.33 46.05 45.45 45.33 45.74
48.51 44.81 47.84 48.36 48.25 47.77 47.60 47.62 47.27 47.17 46.00 45.38 42.82 40.15 38.95 37.91 37.61 37.42 37.56 39.47 40.51 39.75 39.44 39.01 38.80 39.36 39.42 39.73 40.39 41.07 42.42 43.46 44.32 44.63 45.52 45.83 46.62 47.01 46.09 45.22 45.09 44.56 44.94
47.14 47.36 47.06 47.78 47.94 47.81 48.95 47.31 48.11 47.33 45.80 44.81 44.36 42.69 41.72 38.63 37.81 37.44 37.25 39.03 37.78 37.01 37.09 37.31 37.66 38.13 38.66 39.10 39.57 40.45 41.56 41.64 42.01 44.09 45.02 45.16 45.51 45.73 45.82 45.68 45.15 39.11 40.12
47.02 43.86 44.21 47.64 47.82 47.88 47.05 46.04 45.31 44.08 43.49 43.14 42.87 42.12 42.32 39.91 38.35 37.69 37.91 37.98 37.58 37.35 37.27 37.28 37.36 37.93 38.16 38.46 39.17 39.67 41.14 41.51 41.73 42.38 43.45 44.75 45.13 45.37 44.94 44.80 44.43 43.88 43.56
47.45 47.34 42.51 47.16 47.05 46.07 46.14 44.28 43.36 42.85 42.41 42.32 41.82 39.20 31.43 38.17 36.79 36.65 36.90 36.97 37.04 37.46 37.34 37.16 37.14 37.39 37.75 38.24 38.61 39.31 40.14 40.93 40.96 41.20 42.24 43.91 44.72 44.27 44.85 44.67 44.44 43.99 43.02
47.79 47.27 46.86 46.17 45.66 44.55 44.23 43.45 43.30 43.18 43.00 42.84 42.17 40.51 33.18 38.89 38.12 37.92 38.16 38.06 38.04 37.33 37.08 36.71 36.14 35.92 36.10 36.74 36.82 37.49 38.52 39.40 40.17 40.26 41.55 43.36 44.18 44.34 44.16 43.38 42.90 42.38 41.99
47.14 46.18 45.18 44.16 44.03 41.06 43.28 43.14 43.11 43.00 42.78 42.71 43.22 42.58 40.87 39.32 38.64 38.29 38.57 38.85 37.85 36.87 36.53 36.03 35.27 35.07 35.63 36.09 36.46 36.29 36.30 36.98 37.58 38.66 41.12 42.95 43.19 42.69 42.33 41.66 41.08 40.55 40.29
47.18 46.01 44.78 43.54 43.54 43.52 43.51 43.17 42.77 39.02 41.41 41.10 41.22 40.68 40.82 40.26 39.46 39.02 39.35 39.15 37.89 36.88 36.16 35.44 34.92 34.50 35.05 35.36 35.81 36.10 35.93 35.92 37.49 40.26 42.36 42.60 41.97 41.09 41.13 40.85 40.16 39.55 39.22
48.53 47.22 44.90 43.89 43.47 43.25 43.11 42.82 42.21 41.40 40.85 40.31 39.75 39.44 39.35 39.41 39.27 39.87 40.21 39.00 37.03 35.87 35.23 34.99 34.84 34.65 34.68 34.53 34.81 35.15 32.59 31.43 36.50 33.68 42.19 42.09 41.13 40.64 40.19 39.73 39.50 39.28 39.05
48.58 48.69 46.93 44.12 43.31 43.04 42.98 42.67 42.15 41.40 40.31 39.62 39.33 39.26 39.38 39.66 39.86 40.42 40.50 39.57 36.36 35.13 34.72 34.60 34.69 34.75 34.59 34.66 33.52 31.10 31.15 31.62 35.12 32.73 41.30 41.34 40.42 39.80 39.77 39.31 38.79 38.34 38.25
MSLP
1025.15 1024.96 1024.78 1024.56 1024.26 1024.01 1023.71 1023.28 1022.87 1022.50 1022.14 1021.78 1021.46 1021.34 1021.21 1021.19 1020.96 1020.79 1020.52 1020.35 1020.53 1020.54 1020.66 1020.66 1020.57 1020.60 1020.76 1020.98 1021.09 1021.06 1020.85 1020.78 1020.25 1019.52 1019.22 1019.24 1019.21 1019.14 1018.96 1018.77 1018.67 1018.58 1018.22
1025.35 1025.16 1024.99 1024.69 1024.37 1024.10 1023.78 1023.45 1022.91 1022.48 1022.21 1021.94 1021.89 1021.89 1021.76 1021.68 1021.51 1021.30 1021.12 1021.14 1021.10 1020.99 1020.78 1020.62 1020.55 1020.51 1020.74 1020.95 1020.90 1020.65 1020.52 1020.41 1020.16 1019.57 1019.26 1019.26 1019.28 1019.18 1018.99 1018.90 1018.80 1018.51 1018.35
1025.56 1025.37 1025.16 1024.85 1024.61 1024.34 1023.95 1023.52 1023.12 1022.77 1022.69 1022.40 1022.30 1022.25 1022.15 1022.01 1021.78 1021.56 1021.46 1021.43 1021.30 1021.08 1020.88 1020.74 1020.59 1020.63 1020.74 1020.74 1020.65 1020.39 1020.28 1020.07 1019.87 1019.59 1019.44 1019.27 1019.30 1019.35 1019.09 1019.01 1018.88 1018.61 1018.25
1025.68 1025.55 1025.32 1025.11 1024.85 1024.52 1024.17 1023.79 1023.43 1023.15 1022.99 1022.80 1022.68 1022.57 1022.46 1022.32 1022.07 1021.81 1021.63 1021.45 1021.27 1021.08 1020.91 1020.77 1020.64 1020.59 1020.65 1020.54 1020.32 1020.12 1019.94 1019.79 1019.64 1019.56 1019.38 1019.31 1019.31 1019.57 1019.47 1019.37 1019.15 1018.76 1018.38
1025.88 1025.74 1025.67 1025.37 1024.96 1024.61 1024.29 1023.99 1023.71 1023.45 1023.26 1023.10 1022.93 1022.67 1022.61 1022.32 1021.99 1021.71 1021.62 1021.55 1021.50 1021.34 1021.12 1020.85 1020.72 1020.70 1020.55 1020.30 1020.14 1019.91 1019.68 1019.63 1019.58 1019.50 1019.44 1019.50 1019.53 1019.73 1019.63 1019.59 1019.33 1018.84 1018.32
1026.13 1026.06 1025.82 1025.42 1025.11 1024.83 1024.50 1024.21 1023.91 1023.65 1023.41 1023.24 1023.06 1022.87 1022.65 1022.37 1022.10 1021.57 1021.54 1021.61 1021.55 1021.42 1021.24 1021.10 1020.99 1020.81 1020.56 1020.31 1020.05 1019.90 1019.77 1019.76 1019.70 1019.63 1019.68 1019.72 1019.87 1019.92 1019.81 1019.76 1019.59 1019.18 1018.68
1026.45 1026.33 1025.95 1025.71 1025.36 1024.96 1024.68 1024.33 1024.16 1023.94 1023.67 1023.48 1023.34 1023.20 1022.96 1022.68 1022.29 1021.89 1021.72 1021.80 1021.74 1021.64 1021.48 1021.31 1020.99 1020.77 1020.48 1020.35 1020.29 1020.16 1020.03 1019.95 1019.87 1019.82 1019.90 1019.94 1020.00 1020.10 1020.05 1019.93 1019.77 1019.53 1018.93
1026.76 1026.55 1026.29 1025.98 1025.63 1025.25 1024.85 1024.61 1024.38 1024.16 1023.94 1023.78 1023.56 1023.43 1023.17 1022.86 1022.52 1022.23 1022.01 1021.90 1021.73 1021.63 1021.47 1021.28 1021.08 1020.90 1020.78 1020.66 1020.58 1020.47 1020.37 1020.32 1020.16 1020.07 1020.03 1020.08 1020.05 1020.06 1020.03 1020.01 1019.79 1019.36 1018.45
1027.11 1026.87 1026.59 1026.25 1025.97 1025.57 1025.21 1024.98 1024.69 1024.44 1024.16 1023.93 1023.72 1023.52 1023.26 1023.03 1022.71 1022.36 1022.15 1022.02 1021.87 1021.79 1021.71 1021.53 1021.38 1021.31 1021.21 1021.09 1020.92 1020.80 1020.73 1020.59 1020.40 1020.32 1020.24 1020.16 1020.07 1020.01 1019.95 1019.85 1019.48 1019.23 1018.48
1027.50 1027.24 1026.88 1026.54 1026.31 1026.06 1025.72 1025.39 1025.07 1024.76 1024.46 1024.15 1023.94 1023.75 1023.60 1023.39 1023.14 1022.76 1022.40 1022.21 1022.09 1022.10 1022.07 1021.86 1021.73 1021.74 1021.61 1021.49 1021.31 1021.18 1021.00 1020.94 1020.66 1020.39 1020.22 1020.02 1019.91 1019.69 1019.60 1019.47 1019.51 1019.50 1018.95
1027.84 1027.51 1027.22 1026.95 1026.70 1026.45 1026.12 1025.74 1025.49 1025.21 1024.86 1024.60 1024.31 1024.16 1023.95 1023.67 1023.32 1023.06 1022.68 1022.61 1022.59 1022.54 1022.43 1022.21 1022.20 1022.01 1021.81 1021.63 1021.56 1021.40 1021.25 1021.05 1020.80 1020.56 1020.27 1019.98 1019.71 1019.38 1019.13 1019.12 1019.06 1019.11 1018.74
1027.94 1027.71 1027.52 1027.28 1027.04 1026.77 1026.49 1026.17 1025.90 1025.58 1025.31 1025.00 1024.67 1024.50 1024.28 1023.95 1023.73 1023.44 1023.18 1022.94 1022.80 1022.80 1022.83 1022.68 1022.45 1022.24 1021.97 1021.78 1021.64 1021.41 1021.16 1020.96 1020.75 1020.38 1019.99 1019.74 1019.58 1019.03 1018.83 1018.59 1018.36 1018.27 1018.08
1028.01 1027.80 1027.62 1027.42 1027.29 1027.08 1026.81 1026.55 1026.31 1026.05 1025.86 1025.62 1025.25 1024.97 1024.60 1024.37 1023.94 1023.77 1023.52 1023.29 1022.92 1022.73 1022.69 1022.66 1022.49 1022.13 1021.81 1021.59 1021.40 1021.16 1020.96 1020.80 1020.54 1020.18 1019.81 1019.54 1019.21 1018.81 1018.39 1017.91 1017.55 1017.55 1017.32
1028.26 1028.08 1027.82 1027.70 1027.59 1027.40 1027.17 1027.01 1026.91 1026.77 1026.42 1026.24 1025.97 1025.55 1025.11 1024.61 1024.30 1024.07 1023.70 1023.30 1023.08 1022.73 1022.52 1022.42 1022.29 1021.96 1021.69 1021.59 1021.29 1021.08 1020.81 1020.59 1020.45 1020.10 1019.75 1019.49 1018.87 1018.47 1018.17 1017.82 1017.41 1017.20 1016.80
1028.56 1028.40 1028.22 1028.17 1027.99 1027.77 1027.57 1027.41 1027.30 1027.34 1027.26 1027.00 1026.63 1026.16 1025.82 1025.12 1025.00 1024.87 1024.46 1024.12 1023.84 1023.46 1023.10 1022.82 1022.67 1022.32 1021.99 1021.79 1021.42 1021.19 1020.85 1020.53 1020.27 1020.07 1019.82 1019.33 1018.64 1018.39 1017.88 1017.75 1017.41 1017.01 1016.74
1029.02 1028.71 1028.54 1028.48 1028.28 1028.10 1027.92 1027.44 1026.95 1027.15 1027.04 1027.34 1027.12 1026.83 1025.90 1025.83 1025.42 1024.95 1024.72 1024.30 1023.95 1023.71 1023.52 1023.75 1023.64 1023.39 1023.05 1022.72 1022.24 1021.74 1021.33 1020.96 1020.60 1020.17 1019.66 1019.19 1018.74 1018.41 1018.04 1017.72 1017.50 1017.22 1016.76
1029.38 1029.18 1028.79 1028.61 1028.56 1028.40 1028.22 1027.69 1027.41 1027.00 1027.13 1027.22 1027.18 1026.92 1026.77 1026.53 1025.89 1025.36 1025.01 1024.98 1024.83 1024.03 1024.34 1024.63 1024.49 1024.22 1023.95 1023.57 1023.15 1022.66 1022.11 1021.69 1021.19 1020.53 1019.97 1019.49 1019.00 1018.52 1018.27 1018.01 1017.68 1017.36 1016.94
1029.36 1029.04 1029.03 1028.76 1028.57 1028.45 1028.33 1028.05 1027.86 1027.52 1027.44 1027.33 1027.12 1027.26 1027.11 1026.86 1026.46 1026.11 1025.73 1025.10 1025.30 1025.47 1025.62 1025.49 1025.28 1025.02 1024.71 1024.30 1023.84 1023.36 1022.80 1022.16 1021.54 1021.06 1020.50 1020.05 1019.57 1019.13 1018.78 1018.56 1018.26 1017.93 1017.47
1029.71 1029.44 1029.12 1028.93 1028.57 1028.35 1028.17 1028.15 1028.03 1027.98 1027.99 1028.01 1027.77 1027.45 1027.56 1027.55 1027.37 1027.13 1026.70 1026.42 1026.66 1026.60 1026.48 1026.23 1026.06 1025.71 1025.31 1024.91 1024.50 1024.02 1023.52 1022.91 1022.38 1021.65 1021.08 1020.63 1020.21 1019.72 1019.30 1019.01 1018.66 1018.35 1017.97
1029.88 1029.50 1029.20 1028.82 1028.54 1028.39 1028.36 1028.28 1028.32 1028.39 1028.40 1028.45 1028.43 1028.55 1028.33 1027.88 1027.77 1027.80 1027.67 1027.59 1027.47 1027.40 1027.24 1026.95 1026.66 1026.30 1025.92 1025.50 1025.03 1024.54 1023.91 1023.28 1022.78 1022.27 1021.80 1021.27 1020.75 1020.28 1019.83 1019.55 1019.23 1018.88 1018.57
1029.72 1029.53 1029.28 1029.01 1028.81 1028.69 1028.62 1028.64 1028.75 1028.81 1028.85 1028.94 1029.12 1029.20 1028.99 1028.74 1028.83 1028.76 1028.62 1028.45 1028.30 1028.12 1027.89 1027.56 1027.17 1026.79 1026.38 1025.97 1025.53 1025.04 1024.51 1023.98 1023.52 1023.04 1022.43 1021.80 1021.27 1020.77 1020.48 1020.14 1019.74 1019.36 1019.07
1029.68 1029.38 1029.10 1029.01 1028.92 1028.88 1028.98 1029.06 1029.13 1029.19 1029.26 1029.26 1029.46 1029.56 1029.39 1029.31 1029.34 1029.29 1029.20 1029.08 1028.95 1028.75 1028.45 1028.05 1027.58 1027.27 1026.94 1026.49 1026.09 1025.57 1025.08 1024.58 1024.06 1023.61 1022.95 1022.25 1021.66 1021.26 1020.94 1020.59 1020.27 1020.02 1019.79
1029.57 1029.43 1029.30 1029.28 1029.28 1029.28 1029.32 1029.43 1029.49 1029.53 1029.59 1029.63 1029.69 1029.77 1029.82 1029.86 1029.83 1029.76 1029.67 1029.54 1029.35 1029.08 1028.80 1028.43 1028.03 1027.59 1027.29 1026.91 1026.52 1026.10 1025.56 1025.20 1024.81 1024.37 1023.51 1022.73 1022.24 1021.89 1021.58 1021.26 1020.99 1020.67 1020.54
1029.59 1029.54 1029.48 1029.52 1029.57 1029.61 1029.64 1029.76 1029.88 1029.93 1029.92 1029.96 1030.00 1030.08 1030.15 1030.19 1030.16 1030.11 1030.00 1029.86 1029.66 1029.46 1029.19 1028.88 1028.60 1028.24 1027.76 1027.27 1026.81 1026.36 1026.01 1025.60 1025.00 1024.32 1023.70 1023.09 1022.76 1022.47 1022.18 1021.89 1021.65 1021.44 1021.09
1029.52 1029.54 1029.56 1029.57 1029.71 1029.86 1029.96 1030.03 1030.14 1030.24 1030.28 1030.32 1030.40 1030.46 1030.49 1030.47 1030.41 1030.30 1030.27 1030.17 1030.04 1029.83 1029.63 1029.37 1029.07 1028.67 1028.24 1027.82 1027.32 1026.79 1026.36 1025.75 1025.14 1024.60 1023.85 1023.52 1023.30 1023.09 1022.84 1022.56 1022.25 1021.94 1021.71
1029.38 1029.39 1029.45 1029.59 1029.80 1029.93 1030.07 1030.20 1030.34 1030.46 1030.56 1030.67 1030.75 1030.79 1030.78 1030.74 1030.67 1030.59 1030.55 1030.46 1030.39 1030.29 1030.10 1029.83 1029.49 1029.08 1028.62 1028.15 1027.78 1027.24 1026.58 1025.97 1025.44 1025.04 1024.45 1024.10 1023.80 1023.59 1023.35 1023.11 1022.87 1022.53 1022.25
Wind_Speed
5 6 6 5 5 5 4 5 5 4 5 6 6 4 6 6 7 4 4 7 6 3 0 3 2 1 1 2 2 2 2 2 4 3 1 0 1 2 3 4 4 4 4
5 5 5 5 6 6 6 7 6 5 6 6 6 6 6 6 6 6 6 6 5 4 4 3 1 2 2 2 2 1 2 3 2 6 1 0 0 1 3 4 3 3 4
5 5 5 6 6 5 6 7 7 5 5 5 5 5 5 6 5 5 4 4 4 3 2 1 1 1 2 2 2 3 2 2 3 2 2 0 1 1 3 2 2 3 3
4 4 6 7 8 7 7 5 7 7 5 5 4 4 5 5 6 6 6 5 4 4 4 3 2 2 2 3 3 4 3 3 2 1 1 1 1 1 1 2 2 2 5
6 7 7 7 6 7 7 6 5 5 4 4 5 5 5 5 5 7 5 4 4 4 3 3 3 4 6 4 3 4 3 1 1 2 2 2 2 1 2 2 3 4 3
6 6 6 6 8 7 6 6 6 6 5 4 5 6 7 6 14 8 4 3 3 4 4 4 4 5 5 5 7 6 4 2 2 2 2 1 2 1 2 2 3 3 4
6 7 7 8 8 8 6 6 6 6 5 5 7 7 7 7 12 8 6 4 3 4 4 3 4 4 5 4 5 9 10 10 8 1 2 2 3 2 2 3 2 3 4
7 7 8 8 8 8 8 7 6 5 5 5 5 4 4 6 10 8 6 3 3 4 5 5 4 4 5 4 4 5 5 5 5 3 3 2 2 1 1 2 3 6 7
8 8 8 7 8 8 8 7 6 5 5 4 4 5 5 6 9 8 5 4 5 6 6 6 4 4 6 7 5 6 5 5 4 4 2 1 2 3 3 2 3 5 4
7 7 7 7 7 7 7 7 5 4 4 4 5 6 8 6 10 10 7 3 4 4 4 5 10 7 8 8 5 4 5 5 4 3 2 2 3 4 6 5 2 2 3
5 5 6 7 6 6 5 5 6 6 6 6 5 5 6 7 7 10 9 5 4 5 5 4 4 8 7 6 5 3 3 3 4 3 3 2 3 4 3 3 5 4 3
4 4 4 5 5 5 6 6 7 6 6 6 6 5 5 6 9 9 9 8 7 5 4 3 4 6 6 6 3 4 5 3 3 3 3 2 2 3 3 5 6 7 8
5 5 4 4 4 5 5 6 5 5 5 5 5 5 5 4 4 8 8 8 7 3 3 2 1 3 3 2 2 2 2 3 3 3 3 2 4 5 7 5 5 6 8
5 6 5 6 5 5 5 4 4 5 5 4 5 5 5 4 4 5 5 5 6 6 7 4 4 4 4 4 4 4 3 2 2 3 3 4 4 2 2 3 2 3 3
5 5 5 4 5 5 4 3 3 2 0 3 3 3 5 6 6 7 5 4 4 4 4 4 5 5 7 7 5 6 5 5 5 4 3 4 5 3 4 3 3 3 4
5 4 4 5 6 4 4 4 5 5 2 3 7 5 4 4 8 11 10 10 11 9 4 6 7 7 7 8 8 7 7 7 7 6 4 3 4 5 6 5 4 4 5
3 3 3 4 3 3 3 5 6 5 8 10 10 13 12 6 9 9 11 10 15 6 8 7 7 7 7 6 6 6 6 6 6 6 6 5 4 4 5 6 6 5 5
4 7 3 3 3 2 2 2 2 3 4 4 7 9 12 15 16 17 12 6 8 8 6 7 7 6 6 6 6 6 6 6 7 7 7 6 6 5 5 6 6 5 6
4 4 4 2 2 3 3 3 3 3 3 3 4 7 9 11 9 11 10 8 6 7 6 6 6 6 6 6 6 6 6 7 7 7 8 7 7 6 6 6 6 6 6
4 7 4 3 3 4 4 4 4 4 4 4 5 4 5 6 7 7 8 7 7 6 6 6 6 6 6 7 6 6 6 7 8 8 7 7 7 6 6 6 6 6 6
3 2 4 2 2 2 2 4 4 3 4 4 4 4 5 6 6 7 7 7 6 6 6 6 6 6 6 6 7 6 6 6 7 7 7 7 7 6 6 5 6 7 7
3 4 4 3 2 3 3 3 3 3 3 3 3 4 6 6 6 6 6 6 6 6 5 5 5 6 6 6 7 6 6 7 7 7 7 7 7 6 6 7 7 7 8
3 4 4 3 2 3 4 3 3 3 3 3 2 3 4 4 5 5 5 5 6 6 6 6 6 7 6 5 5 5 6 6 6 6 6 6 6 6 7 7 8 8 8
2 3 2 2 2 2 3 3 3 4 4 3 3 3 3 3 4 5 5 5 5 6 6 7 7 9 8 7 6 6 5 6 5 5 6 6 6 7 7 7 7 9 8
1 2 1 2 2 2 3 3 3 3 3 4 3 3 3 3 3 4 4 5 5 6 7 7 7 9 11 12 11 11 10 8 7 5 5 7 9 10 8 7 7 8 10
1 1 1 2 2 2 2 2 2 2 3 3 3 3 3 3 3 4 4 5 5 6 7 6 8 11 12 10 13 12 10 10 9 8 6 7 7 7 7 8 11 8 9
Wind_Direction
340 324 332 335 339 338 337 342 345 330 337 342 352 12 38 28 13 14 20 32 28 343 151 241 264 214 194 211 204 220 235 229 273 284 253 60 2 347 326 330 329 348 338
334 346 349 344 348 353 351 339 333 352 353 19 29 26 33 29 22 19 22 15 20 13 11 26 337 149 195 227 233 271 280 256 274 305 352 342 357 327 298 328 0 339 333
350 1 349 2 354 345 348 351 350 19 17 28 35 42 20 10 3 9 9 356 338 324 344 287 254 91 280 268 268 273 291 286 259 277 304 279 111 11 318 337 329 319 305
3 4 2 358 354 354 350 354 6 8 5 11 13 27 28 2 352 345 333 323 311 311 336 342 13 356 292 287 280 299 279 285 289 274 288 323 37 38 321 335 334 289 310
16 11 8 354 338 348 353 354 353 1 3 359 358 15 10 350 344 329 324 325 330 343 11 22 13 343 337 316 293 295 273 271 286 353 341 21 34 17 309 2 293 316 297
19 11 355 344 355 354 354 353 355 358 2 359 6 9 4 353 350 6 25 27 38 26 5 357 342 348 345 5 11 15 36 24 22 359 2 7 27 9 311 330 323 349 330
14 2 358 359 345 346 344 355 6 5 0 5 15 23 0 352 1 28 50 43 37 25 12 358 4 10 10 14 22 48 51 50 52 56 70 6 28 10 320 322 321 302 282
14 6 4 354 352 356 2 4 356 344 354 8 15 19 359 4 7 16 34 42 33 29 26 16 10 7 23 57 66 54 38 38 35 47 72 63 90 165 227 261 286 292 280
10 357 354 347 358 4 7 360 359 3 1 6 2 9 12 17 18 22 22 23 31 32 29 25 23 36 27 42 50 50 43 29 25 47 60 97 233 232 229 293 310 338 330
354 354 353 356 12 9 1 357 347 356 0 1 18 21 28 22 22 24 21 18 38 31 30 24 32 34 31 28 45 40 44 20 9 12 358 322 302 275 262 238 267 321 315
353 1 4 9 2 357 359 5 2 1 5 16 23 23 24 19 10 11 12 30 38 50 39 12 17 14 23 37 51 42 14 335 360 351 323 305 298 285 275 257 234 216 243
344 3 7 8 2 0 7 6 12 9 15 13 18 26 18 10 18 14 27 41 49 70 45 3 358 12 32 40 42 25 50 22 354 339 325 316 298 280 276 262 256 234 235
342 355 1 3 4 4 18 25 30 19 29 21 15 18 8 6 8 9 20 18 24 37 23 2 341 34 3 336 319 266 312 329 336 347 335 292 291 296 293 269 262 257 256
9 17 17 30 20 23 27 25 34 32 17 25 8 359 344 344 358 359 350 349 352 3 2 359 355 319 295 306 327 342 346 337 335 327 320 323 290 329 316 322 299 332 308
27 24 26 34 27 28 26 17 34 99 44 357 334 317 332 347 348 323 302 351 3 355 343 19 25 8 17 15 10 15 6 7 359 333 310 320 319 325 346 332 313 322 307
30 12 24 48 32 28 13 338 263 250 287 251 289 280 338 333 353 24 31 44 37 19 51 39 30 19 20 8 11 1 9 4 1 354 352 337 338 356 5 2 349 339 332
30 20 1 25 31 9 8 352 2 360 54 59 37 44 36 5 23 29 39 40 41 37 52 34 34 25 13 9 9 7 360 353 341 8 10 9 2 18 19 7 2 6 4
21 10 22 357 2 33 38 3 358 15 29 16 9 35 29 30 31 28 11 15 38 33 42 34 25 16 12 10 6 4 357 3 13 11 15 12 7 4 8 8 4 356 356
353 341 341 351 335 353 19 39 36 54 51 32 4 23 9 8 21 32 24 55 47 36 24 28 18 15 11 6 4 1 359 4 358 8 11 14 10 5 7 4 359 5 355
346 332 341 344 2 19 32 52 73 71 68 56 46 20 354 28 34 28 34 38 37 32 21 19 12 11 9 7 3 358 1 11 9 9 4 4 4 8 14 9 12 10 11
333 332 318 330 19 20 64 78 90 87 79 67 58 30 354 65 50 41 35 32 27 22 15 13 11 9 5 5 5 4 3 3 7 4 2 2 4 9 10 20 18 19 14
327 337 354 10 29 77 83 78 84 88 81 84 77 53 30 61 53 47 40 33 25 23 15 10 13 9 5 5 0 358 356 358 359 358 354 356 6 18 21 24 21 20 21
349 354 19 40 65 89 83 78 80 79 79 73 72 71 58 58 51 42 36 28 26 23 17 18 16 13 8 1 359 356 350 348 338 330 337 357 21 24 26 30 25 23 22
345 11 63 75 64 80 90 90 84 76 79 71 61 57 58 54 50 43 35 27 26 25 24 22 18 14 5 6 1 360 357 343 327 331 346 16 32 30 31 33 32 28 26
14 51 67 97 111 117 114 105 97 80 69 62 56 55 59 63 57 45 33 30 31 29 25 18 14 9 13 12 12 10 354 339 7 334 29 42 43 37 36 34 27 28 29
171 136 129 157 160 147 142 137 112 92 85 79 71 62 59 56 48 42 32 32 31 30 24 18 14 15 14 15 11 360 359 3 12 2 31 42 40 36 38 37 32 29 26